Regional Weather Roundup
Issued by NWS

Home | Current Version | Previous Version | Text Only | Print | Product List | Glossary On
Versions: 1 2 3 4 5 6 7 8 9 10 11 12 13 14 15 16 17 18 19 20 21 22 23 24 25 26 27 28 29 30 31 32 33 34 35 36 37 38 39 40 41 42 43 44 45 46 47 48 49 50
000
ASHW40 PHFO 040210
RWRHI

WEATHER ROUNDUP FOR HAWAII
NATIONAL WEATHER SERVICE HONOLULU HI
400 PM HST FRI JUL 03 2015

THIS IS AN AUTOMATED REPORT THAT HAS NOT BEEN QUALITY CONTROLLED.

NOTE..."FAIR" INDICATES FEW OR NO CLOUDS BELOW 12,000 FEET WITH NO
SIGNIFICANT WEATHER AND/OR OBSTRUCTIONS TO VISIBILITY.

* - THESE SITES REPORT LIMITED FIELDS

HIZ001>004-040300-
KAUAI-NIIHAU-

CITY           SKY/WX    TMP DP  RH WIND       PRES   REMARKS
LIHUE APT      SUNNY     84  72  67 E8        29.90F
PORT ALLEN*    NOT AVBL
POIPU*           N/A     88 N/A N/A E5G12       N/A
PRINCEVILLE*     N/A     82 N/A N/A MISG        N/A
KOKOLE POINT*  NOT AVBL
MOLOAA DAIRY*  NOT AVBL
WAIMEA HTS*    NOT AVBL
PUU OPAE*      NOT AVBL
PUU LUA*       NOT AVBL
MAKAHA RIDGE*  NOT AVBL
$$

HIZ005>011-040300-
OAHU-

CITY           SKY/WX    TMP DP  RH WIND       PRES   REMARKS
HONOLULU       MOSUNNY   90  69  50 NE15      29.86F HX  94
KALAELOA       MOSUNNY   83  73  72 SE12G21   29.88F
KANEOHE MCB    PTSUNNY   83  71  67 E9        29.87F
WHEELER FIELD  CLOUDY    82  68  61 NE5       29.88F
BELLOWS*       NOT AVBL
KAHUKU*        NOT AVBL
WHEELER*       NOT AVBL
WAIANAE HARBOR NOT AVBL
DILLINGHAM*      N/A     90  72  55 MISG        N/A  HX  96
KAHUKU TRN*      N/A     86  70  58 E9G20       N/A  HX  90
KAWAILOA*        N/A     82  68  61 NE6G15      N/A
KII*             N/A     82  73  74 E15         N/A
MAKUA RANGE*     N/A     86  73  66 SW6G12      N/A  HX  93
OAHU FOREST NW NOT AVBL
SCHOFIELD BRK*   N/A     81  70  69 MISG        N/A
SCHOFIELD S*   NOT AVBL
WAIANAE VLY*   NOT AVBL
KUAOKALA*      NOT AVBL
HONOULIUULI*   NOT AVBL
MOKUOLOE IS*   NOT AVBL
PALEHUA*       NOT AVBL
WAIAWA PHB*    NOT AVBL
$$

HIZ012>013-040300-
MOLOKAI-

CITY           SKY/WX    TMP DP  RH WIND       PRES   REMARKS
MOLOKAI AIRPT  MOSUNNY   85  66  53 SW10G17   29.89S
KALAUPAPA      NOT AVBL
MAKAPULAPAI*   NOT AVBL
MOLOKAI 1*     NOT AVBL
PUU ALII*      NOT AVBL
$$

HIZ016-040300-
KAHOOLAWE-

CITY           SKY/WX    TMP DP  RH WIND       PRES   REMARKS
KAHOOLAWE*     NOT AVBL
HAKIOAWA*      NOT AVBL
HONOKANAIA*      N/A     85  67  55 E18G32    29.89R
KANELOA*         N/A     81  70  69 E20G30    29.96F
KEALIALALO*    NOT AVBL
LUA MAKIKA*    NOT AVBL
$$

HIZ014>015-040300-
LANAI-

CITY           SKY/WX    TMP DP  RH WIND       PRES   REMARKS
LANAI CITY     CLOUDY    78  69  73 NW7       29.95S
LANAI 1*       NOT AVBL
$$

HIZ017>028-040300-
MAUI-

CITY           SKY/WX    TMP DP  RH WIND       PRES   REMARKS
KAHULUI        SUNNY     91  68  46 NE18      29.86S HX  95
KAPALUA-W MAUI NOT AVBL
HANA AIRPORT   MOSUNNY   82  70  65 SE7       29.93S
HANA*          NOT AVBL
HALEAKALA SUMM   N/A     57  34  41 E6G21       N/A
MAALAEA BAY*   NOT AVBL
HALEAKALA*     NOT AVBL
KAUPO GAP*     NOT AVBL
KULA 1*          N/A     71  61  71 W6G13       N/A
$$

HIZ023>026-040300-
BIG ISLAND OF HAWAII COAST AND LOWER SLOPES-

CITY           SKY/WX    TMP DP  RH WIND       PRES   REMARKS
KAILUA KONA    PTSUNNY   84  73  69 SW10      29.85S HX  90
HILO           MOSUNNY   85  68  56 E9        29.90F
HONOKAA*       NOT AVBL
KAWAIHAE MWT*  NOT AVBL
KAWAIHAE*        N/A     81 N/A N/A SW9         N/A
SOUTH POINT*   NOT AVBL
UPOLU AIRPORT* NOT AVBL
KAMUELA*       PTCLDY    79  63  57 NE16      29.99S
HAKALAU*         N/A     70  51  51 NE5G10      N/A
KALOKO-HONOKO* NOT AVBL
PALI 2*          N/A     75  66  73 SW8G21      N/A
KEALAKOMO*       N/A     61  45  55 E22G30      N/A
KAUPULEHU*     NOT AVBL
KAPAPALA*        N/A     74  67  77 SE3G10      N/A
LOWER KAHUKU*  NOT AVBL
PUHE CS*       NOT AVBL
PUHO CS*       NOT AVBL
PTA KEAMUKU*     N/A     75  61  60 CALM        N/A
WAIKOLOA*      NOT AVBL
$$

HIZ027>028-040300-
BIG ISLAND OF HAWAII INTERIOR AND SUMMMITS-

CITY           SKY/WX    TMP DP  RH WIND       PRES   REMARKS
BRADSHAW FIELD MOSUNNY   72  59  63 W9G17     30.23S
MK VISITOR CEN   N/A      0   0 100 MISG        N/A
MAUNA KEA*       N/A     45  28  53 E3          N/A
MAUNA LOA*       N/A     54  34  47 MISG        N/A
MAUNA LOA 1*   NOT AVBL
PTA KIPUKA*      N/A     72  59  64 NW7         N/A
PTA RANGE 17*    N/A     72  61  68 NW12G18     N/A
PTA WEST*        N/A    N/A N/A N/A NW9G17      N/A
NENE CABIN*    NOT AVBL
AHUMOA*        NOT AVBL
PTA PORTABLE*  NOT AVBL
PUU MALI*        N/A     70  43  37 NE20G26     N/A
$$

HIC003-040300-
NORTHWEST ISLANDS-

CITY           SKY/WX    TMP DP  RH WIND       PRES   REMARKS
MIDWAY ISLAND  SUNNY     88  75  66 W10       29.92F HX  97
MIDWAY NOS*    NOT AVBL
FRENCH FRIGATE NOT AVBL
$$

PHZ110>124-180-040300-
BUOY REPORTS

STATION/POSITION TIME  TEMP    WIND        PRES    WAVE   SWELL
                       AIR SEA DIR/SP/G            HT/PER HT/DIR
                 (UTC) (F)     (DEG/KT/KT) (MB)    (FT/S) (FT/D)
BUOY 51001       NOT AVBL
BUOY 51101       0200   80 82  190/  6/  8 1011.6F   6/ 9   5/100
BUOY 51100       NOT AVBL
BUOY 51002       0200   80 81   90/ 16/ 19 1010.4F   7/ 9   5/ 90
BUOY 51003       0100   81 82  140/  8/ 10 1011.9F   6/14   7
BUOY 51004       0141   79 80   50/ 16/ 17 1010.4F   6/14   5/190
BARBERS PT BUOY  NOT AVBL
WAIMEA BAY BUOY  0200      80                N/A     3/10   2/320
KAILUA BAY BUOY  0200      80                N/A     4/ 8   2/140
LANAI BUOY       NOT AVBL
BARBERS PT 2     0200      80                N/A     5/14   3/180
PAUWELA MAUI     0200      79                N/A     5/ 8   2/360
HILO             0200      80                N/A     6/ 8   2/ 50
KANEOHE BAY BUOY 0200      79                N/A     4/ 8
HANALEI KAUAI    0200      81                N/A     5/ 9
KAHULUI HARBOR   0200   81 81   20/ 14/ 20 1011.2S
HONOLULU HARBOR  0200   86 82   60/  4/  9 1011.4F
KILO NALU        NOT AVBL
HILO HARBOR      0200   86 78   50/  9/ 12 1012.3F
MOKUOLOE         0200   86 84  110/  7/ 12 1012.6F
NAWILIWILI       0200   81 81   90/  7/  8 1012.2S
WHOTS BUOY       NOT AVBL
BUOY 51028       NOT AVBL
$$

......................KEY........................................
  SKY/WX - SKY CONDITIONS/PRESENT WEATHER
  TMP    - TEMPERATURE IN FAHRENHEIT
  DWPT   - DEWPOINT IN FAHRENHEIT
  RH     - RELATIVE HUMIDITY IN PERCENT
  WIND   - DIRECTION AND SPEED /MPH FOR ISLANDS...KTS FOR BUOYS/
  PRES   - MEAN SEA LEVEL PRESSURE IN INCHES OF HG
  VSB    - VISIBILITY IN MILES
  HX     - HEAT INDEX
  WCI    - WIND CHILL INDEX
  VRB    - VARIABLE WIND DIRECTION
  N/A    - NOT AVAILABLE


USA.gov is the U.S. government's official web portal to all federal, state and local government web resources and services.